www.pogodaiklimat.ru

Погода и климат >> Архив погоды >> Россия >> Крым >> Феодосия


АРХИВ ПОГОДЫ в Феодосии

Время (UTC), дата Ветер
(напр.,м/с)
 
Видим.   Явления Облачность Т
(С)
Тd
(С)
f
(%)
Тe
(С)
Тes
(С)
Комфортность P
(гПа)
Po
(гПа)
Тmin
(С)
Tmax
(С)
R
(мм)
R24
(мм)
S
(см)
09 16.01 ЮВ 2 10 км 10/10 600 м
[Sc]
+2.5 -1.7 74 -0 -0 по сезону 1024.0 1020.7
12 16.01 ЮВ 3 10 км слабый дождь 10/10 600 м
[Frnb Ns]
+3.3 +0.7 83 -1 -1 по сезону 1020.5 1017.2
15 16.01 В 5-10
{11}
10 км слабый дождь 10/10 600 м
[Frnb Ns]
+3.5 +2.2 91 -2 -2 по сезону 1016.5 1013.3 5
18 16.01 ЮВ 2
{14}
10 км {дождь} 5/5 600 м
[Sc]
+5.7 +3.6 86 +3 +3 тепло 1012.8 1009.6 +5.7 10
21 16.01 Ю 4
{11}
10 км 5/5 600 м
[Sc]
+6.0 +3.9 86 +2 +2 по сезону 1010.2 1007.0
00 17.01 штиль 0
{10}
10 км {ливн. осадки} ясно +4.7 +3.3 91 +4 +4 тепло 1010.0 1006.8
03 17.01 штиль 0 10 км 10/10 600 м
[Sc]
+2.3 +0.7 89 +1 +1 по сезону 1009.2 1006.0 +2.3 9
06 17.01 Ю 1 10 км слабый ливневой дождь 10/10 600 м
[Cb cap]
+5.0 +3.8 92 +4 +4 тепло 1009.2 1006.0 +2.3 4
09 17.01 Ю 4 10 км слабый ливневой дождь 8/8 600 м
[Cb cap]
+8.2 +5.8 85 +5 +5 тепло 1006.7 1003.5
12 17.01 Ю 4
{10}
10 км слабый ливневой дождь 7 баллов +8.2 +5.8 85 +5 +5 тепло 1007.2 1004.0
15 17.01 Ю 4
{12}
10 км {ливн. осадки} 8/8 600 м
[Cb cap]
+8.8 +7.2 90 +6 +6 тепло 1006.2 1003.0 0.5
18 17.01 Ю 5-10
{11}
10 км {ливн. осадки} 4/4 600 м
[Cb cap]
+9.0 +5.7 80 +6 +6 тепло 1005.3 1002.2 +9.0 0.1
21 17.01 Ю 4
{11}
10 км 6/4 600 м
[St Ac trans]
+8.4 +6.9 90 +5 +5 тепло 1004.8 1001.6
00 18.01 Ю 5-10
{10}
10 км 3/3 600 м
[St]
+8.3 +6.7 90 +5 +5 тепло 1002.8 999.7
03 18.01 ЮВ 4
{10}
10 км 3/3 600 м
[St]
+8.5 +6.7 88 +5 +5 тепло 999.5 996.4 +8.2
06 18.01 ЮВ 5-10
{10}
10 км 8/8 600 м
[Cb cap]
+9.1 +7.2 88 +6 +6 тепло 997.5 994.4 +8.2
09 18.01 ЮВ 6-10
{12}
10 км 6/4 600 м
[Sc diur, vesp Ci fib]
+10.1 +6.9 81 +7 +8 тепло 995.9 992.8
12 18.01 В 4-10
{12}
10 км 9/0
[Ac trans Ci fib]
+10.0 +6.6 79 +7 +8 тепло 993.9 990.8
15 18.01 В 5-10
{11}
10 км 10/10 600 м
[Cb cap]
+8.2 +6.4 88 +4 +4 тепло 994.4 991.3
18 18.01 В 6-11
{11}
10 км 9/9 600 м
[Cb cap]
+6.5 +3.4 81 +2 +2 по сезону 996.4 993.3 +10.4
21 18.01 В 5-10
{11}
10 км слабый ливневой дождь 10/10 600 м
[Cb cap]
+4.8 +2.3 84 0 0 по сезону 998.0 994.8
00 19.01 В 4
{11}
10 км {ливн. осадки} 10/10 600 м
[Cb cap]
+5.0 +3.6 91 +1 +1 по сезону 999.5 996.3
03 19.01 В 3 10 км слабый ливневой дождь 10/10 600 м
[Cb cap]
+4.0 +2.5 90 0 0 по сезону 1001.8 998.6 +4.0 1
06 19.01 В 2 4000 м слабая морось {ливн. осадки} 10/10 600 м
[St]
+3.6 +2.6 93 +1 +1 по сезону 1003.3 1000.1 +3.6 1
09 19.01 В 2 4000 м дымка {морось} 10/10 600 м
[Cb cap]
+4.3 +3.1 92 +1 +1 по сезону 1005.4 1002.2
12 19.01 З 3 10 км в посл. час ливневой дождь 7 баллов +5.1 +3.3 88 +2 +2 по сезону 1008.5 1005.3
15 19.01 З 2
{11}
10 км ясно +3.6 +1.0 83 +1 +1 по сезону 1011.6 1008.4 0.5
18 19.01 З 1 10 км ясно +2.0 +0.4 89 0 0 по сезону 1014.0 1010.7 +5.1 0.5
21 19.01 Ю 1 10 км ясно +1.2 -0.8 87 -1 -1 по сезону 1014.8 1011.5
00 20.01 СЗ 2 10 км ясно +2.8 +1.0 88 -0 -0 по сезону 1015.5 1012.2
03 20.01 ЮЗ 2 10 км 8/0
[Ac trans]
+2.6 +1.0 89 -1 -1 по сезону 1015.6 1012.3 +1.0
06 20.01 Ю 4 10 км 9/4 600 м
[St Ci fib]
+7.1 +4.9 86 +4 +4 тепло 1015.6 1012.4 +1.0
09 20.01 Ю 6-12
{13}
10 км 10/4 600 м
[Sc Ac As]
+9.1 +4.9 75 +5 +6 тепло 1015.2 1012.0
12 20.01 Ю 6-12
{13}
10 км 9/6 600 м
[Sc Ac trans]
+9.0 -0.4 52 +6 +6 тепло 1013.3 1010.1
15 20.01 Ю 2
{12}
10 км 6/0
[Ac trans]
+8.3 +4.4 76 +7 +7 тепло 1013.7 1010.5
18 20.01 Ю 3 10 км 8/6 600 м
[Sc Ac trans]
+8.0 +6.3 89 +5 +5 тепло 1012.2 1009.0 +9.3
21 20.01 Ю 4-10
{10}
10 км 10/10 600 м
[Sc]
+8.4 +4.5 76 +5 +5 тепло 1010.1 1006.9
00 21.01 Ю 2
{11}
10 км 10/10 600 м
[Sc]
+8.6 +3.3 69 +7 +7 тепло 1009.2 1006.0
03 21.01 Ю 7-12
{12}
10 км слабый ливневой дождь 10/10 600 м
[Cb cap]
+8.0 +5.8 86 +4 +4 тепло 1006.1 1002.9 +7.9 1
06 21.01 Ю 6-12
{14}
4000 м ливневой дождь 10/10 600 м
[Cb cap]
+9.2 +7.6 90 +5 +5 тепло 1006.7 1003.6 +7.9 6
09 21.01 СЗ 6-12
{13}
10 км {ливн. осадки} 10/10 600 м
[Cb cap]
+4.6 +1.8 82 -1 -1 по сезону 1011.6 1008.4
12 21.01 СЗ 5-10
{13}
10 км {ливн. осадки} 8/8 600 м
[Cb cap]
+3.4 +0.5 81 -2 -2 по сезону 1014.0 1010.8
15 21.01 С 2
{10}
10 км 8/4 600 м
[Cb cap Ac trans Ci fib]
+2.1 -0.1 85 -1 -1 по сезону 1017.0 1013.7 10
18 21.01 СВ 3 10 км 10/10 600 м
[Sc]
+2.0 +0.1 87 -2 -2 по сезону 1016.3 1013.0 +9.2 5
21 21.01 В 2 10 км 10/10 600 м
[Sc]
+1.9 +0.3 89 -1 -1 по сезону 1014.7 1011.4
00 22.01 СВ 3 10 км слабый ливневой дождь 10/10 600 м
[Cb cap]
+2.3 +1.0 91 -2 -2 по сезону 1012.1 1008.9
03 22.01 СВ 4 10 км слабый ливневой дождь 10/10 600 м
[Cb cap]
+2.5 +1.2 91 -2 -2 по сезону 1009.2 1006.0 +1.7 5
06 22.01 СЗ 2 10 км слабый ливневой дождь 10/10 600 м
[Cb cap]
+2.2 +1.2 93 -1 -1 по сезону 1007.3 1004.1 +1.7 7
09 22.01 В 2 10 км в посл. час ливневой дождь 10/10 600 м
[Cb cap]
+4.0 +3.0 93 +1 +1 по сезону 1005.8 1002.6
12 22.01 С 2 10 км {ливн. осадки} 10/6 600 м
[Cb cap Ac und]
+4.3 +3.3 93 +1 +2 по сезону 1004.2 1001.0
15 22.01 СВ 2 4000 м слабый ливневой дождь 10/10 600 м
[Cb cap]
+4.2 +3.0 92 +1 +1 по сезону 1003.9 1000.7 3
18 22.01 З 2 10 км 10 баллов +3.6 +2.6 93 +1 +1 по сезону 1004.5 1001.3 +4.6 1
21 22.01 З 3 4000 м слабый дождь 10/10 600 м
[Frnb Ns]
+3.1 +2.1 93 -1 -1 по сезону 1003.8 1000.6
00 23.01 З 4 4000 м дождь 10 баллов +2.0 +0.8 92 -3 -3 по сезону 1005.9 1002.7
03 23.01 СЗ 5-11
{10}
2000 м слабый дождь {морось} 10/10 600 м
[Frnb Ns]
-0.4 -1.3 94 -7 -7 прохладно 1006.5 1003.2 -0.4 0.6

 

Местоположение метеостанции Феодосия (Крым, Россия): широта 45.03 долгота 35.38 высота над уровнем моря 26 м.

В архиве по умолчанию представлена погода в Феодосии за последнюю неделю. Архивные данные за месяц целиком и за предыдущие месяцы, начиная с января 2011 года, Вы можете получить, выбрав интересующий диапазон дат из раскрывающегося списка и нажав кнопку "Ввод!".

Внимание! Время в таблицах - всемирное. Для получения местного времени необходимо прибавить поправку, которая в Феодосии равна 3 ч.

Смотрите также архив погоды в соседних городах и на ближайших метеорологических станциях:

Погода в Владиславовке (Крым, Россия) (16 км)
Погода в Карадаге (Крым, Россия) (20 км)
Погода на Мысовом (Крым, Россия) (58 км)
Погода в Белогорске (Крым, Россия) (61 км)
Погода в Нижнегорском (Крым, Россия) (69 км)
Погода в Ангарском Перевале (Крым, Россия) (87 км)
Погода в Стрелковом (Херсонская область, Украина) (87 км)
Погода в Алуште (Крым, Россия) (87 км)
Погода в Керчи (Крым, Россия) (91 км)
Погода в Симферополе город (Крым, Россия) (100 км)

Пояснения к столбцам:

Ветер - указаны скорость ветра в м/с - средняя за 10 мин, порывы в срок и между сроками (в фигурных скобках) и направление, откуда дует ветер: С - северный, СВ - северо-восточный, В - восточный, ЮВ - юго-восточный, Ю - южный, ЮЗ - юго-западный, З - западный, СЗ - северо-западный.
Видимость - горизонтальная дальность видимости в метрах или километрах. При видимости от 1 до 10 км при отсутствии осадков обычно наблюдается дымка, при ухудшении видимости до 1 км и менее - туман. В сухую погоду видимость может ухудшаться дымом, пылью или мглою.
Явления - указаны атмосферные явления, наблюдавшиеся в срок или в последний час перед сроком; фигурными скобками обозначены явления, наблюдавшиеся между сроками (за 1-3 часа до срока); квадратными скобками обозначены град или гололедные отложения с указанием их диаметра в мм.
Облачность - указаны через наклонную черту общая и нижняя облачность в баллах и высота нижней границы облаков в метрах; квадратными скобками обозначены формы облаков: Ci - перистые, Cs - перисто-слоистые, Cc - перисто-кучевые, Ac - высококучевые, As - высокослоистые, Sc - слоисто-кучевые, Ns - слоисто-дождевые, Cu - кучевые, Cb - кучево-дождевые. Подробнее классификацию облаков см. в Атласе облаков (PDF).
T - Температура воздуха - температура, измеренная на высоте 2 м над землей.
Td - Температура точки росы - температура, при понижении до которой содержащийся в воздухе водяной пар достигнет насыщения.
f - Относительная влажность воздуха - влажноcть воздуха, измеренная на высоте 2 м над землей.
Te - Эффективная температура - температура, которую ощущает одетый по сезону человек в тени. Характеристика душности погоды. При расчете учитывается влияние влажности воздуха и скорости ветра на теплоощущения человека.
Tes - Эффективная температура на солнце - температура, которую ощущает человек, с поправкой на солнечный нагрев. Характеристика знойности погоды. Зависит от высоты солнца над горизонтом, облачности и скорости ветра. Ночью, в пасмурную погоду, а также при ветре 12 м/с и более поправка равна нулю.
P - Атмосферное давление - приведенное к уровню моря атмосферное давление.
Po - Атмосферное давление - измеренное на уровне метеостанции атмосферное давление.
Tmin - Минимальная температура - минимум температуры воздуха на высоте 2 м над землей.
Tmax - Максимальная температура - максимум температуры воздуха на высоте 2 м над землей.
R - Количество осадков - Количество выпавших осадков за период времени, мм. При наведении курсора мыши на число - период времени, за который выпало указанное количество осадков.
R24 - Количество осадков - Количество выпавших осадков за 24 часа, мм.
S - Снежный покров - Высота снежного покрова, см. При наведении курсора мыши на число - состояние снежного покрова и степень покрытия местности в баллах.